Home   Weather   Portage la Prairie   Past weeks

Flag for Canada Past Weather in Portage la Prairie, Manitoba, Canada — Yesterday and Last 2 Weeks

46 °F


Feels Like: 44 °F
Forecast: 38 / 51 °F
Wind: 6 mph from Southwest

Location: Portage Southport A

Current Time: Oct 27, 2016 at 12:00:14 AM

Latest Report: Oct 26, 2016 at 9:00 PM

Visibility: 10 mi

Pressure: 30.03 "Hg

Humidity: 93%

Dew Point: 45 °F

Location of Portage la PrairieLocation

Past Weather in Portage la Prairie — Graph


Portage la Prairie Temperature Yesterday

Maximum temperature yesterday: 46 °F (at 4:00 PM)
Minimum temperature yesterday: 39 °F (at 6:00 AM)
Average temperature yesterday: 43 °F

High & Low Weather Summary for the Past Weeks

High61 °F (Oct 21, 5:00 PM)100% (Oct 24, 6:00 AM)30.45 "Hg (Oct 24, 6:00 AM)
Low28 °F (Oct 24, 8:00 AM)48% (Oct 21, 5:00 PM)29.35 "Hg (Oct 17, 6:00 AM)
Average42 °F76%30.04 "Hg
* Reported Oct 12 6:00 AM — Oct 26 9:00 PM, Portage la Prairie, Weather by CustomWeather, © 2016

Note: Actual official high and low records may vary slightly from our data, if they occured in-between our weather recording intervals... More about our weather records


Portage la Prairie Weather History for the Previous 24 Hours

Scroll right to see more
Time TempWeatherWind HumidityBarometerVisibility
9:00 PM
Wed, Oct 26
46 °FOvercast.6 mph93%30.03 "Hg10 mi
8:00 PM46 °FMostly cloudy.8 mph93%30.03 "Hg8 mi
7:00 PM46 °FFog.10 mph93%30.03 "Hg6 mi
6:00 PM46 °FDrizzle. Fog.6 mph93%30.04 "Hg5 mi
5:00 PM46 °FDrizzle. Overcast.10 mph93%30.04 "Hg12 mi
4:00 PM46 °FLow clouds.13 mph87%30.03 "Hg10 mi
3:00 PM45 °FMostly cloudy.9 mph93%30.06 "Hg10 mi
2:00 PM45 °FDrizzle. Low clouds.14 mph93%30.08 "Hg8 mi
1:00 PM43 °FDrizzle. Low clouds.13 mph93%30.11 "Hg10 mi
12:00 PM43 °FDrizzle. Fog.16 mph93%30.11 "Hg6 mi
11:00 AM41 °FDrizzle. Fog.15 mph93%30.13 "Hg5 mi
10:00 AM39 °FDrizzle. Low clouds.13 mph100%30.14 "Hg8 mi
9:00 AM39 °FDrizzle. Low clouds.14 mph93%30.14 "Hg10 mi
8:00 AM39 °FLight rain. Low clouds.13 mph93%30.16 "Hg10 mi
7:00 AM39 °FLight rain. Overcast.14 mph93%30.16 "Hg10 mi
6:00 AM39 °FLight rain. Overcast.13 mph93%30.17 "Hg10 mi
Weather by CustomWeather, © 2016

See weather overviewHow to use our weather pages